Voltar ao catálogo

ALOS-4

AtivoCiênciaSSO
NORAD 60182·PAYLOAD·🇯🇵 Japan

Lançado Jul 1, 2024 de Tanegashima Space Center

Loading…

Próximas Passagens (próximas 24 horas)

TLE

AtualizadoSource: Space-Track

Época: Sep 14, 2026, 21:46 UTC

1 60182U 24123A   26257.90730632  .00001089  00000-0  15262-3 0  9998
2 60182  97.9220 353.7915 0001500  98.4413 261.6968 14.79474259119142

Acompanhe ALOS-4 em tempo real com AllMySat

Download on the App Store